Location: Unspecified
(0.0000°N, 0.0000°E)
Time: 05:55:11
(UTC+00:00)

Transit 4A - Pass Details

Date: 03 October 2020
Orbit: 862 x 982 km, 66.8° (Epoch: 28 October)

Event Time Altitude Azimuth Distance (km) Brightness Sun altitude
Rises 20:01:33 0° 221° (SW) 3,472 11.5 -33.1°
Reaches altitude 10° 20:04:19 10° 232° (SW) 2,546 10.8 -33.8°
Maximum altitude 20:09:19 29° 290° (WNW) 1,601 9.5 -35.0°
Enters shadow 20:12:13 20° 332° (NNW) 1,989 9.8 -35.7°
Drops below altitude 10° 20:14:25 10° 348° (NNW) 2,606 - -36.3°
Sets 20:17:19 0° 360° (N) 3,567 - -37.0°
